Location: Asheville, NC
(35.6000°N, 82.5500°W)
Time: 09:26:15
(UTC-04:00)

FALCONSAT 3 - Pass Details

Date: 10 March 2018
Orbit: 461 x 463 km, 35.4° (Epoch: 24 June)

Event Time Altitude Azimuth Distance (km) Brightness Sun altitude
Exits shadow 05:39:41 27° 245° (WSW) 912 ? -14.7°
Maximum altitude 05:41:31 68° 168° (SSE) 497 ? -14.3°
Drops below altitude 10° 05:45:10 10° 85° (E) 1,604 ? -13.6°
Sets 05:47:20 0° 83° (E) 2,479 ? -13.1°
